{"data":{"norad_id":69079,"epoch":"2026-05-25T04:43:43.766112Z","epoch_age_seconds":72115,"freshness":"FRESH","line1":"1 69079U 26104G   26145.19703433  .00000080  00000+0  31424-4 0  9997","line2":"2 69079  88.9868 344.2485 0003108 172.5483 187.5753 14.19026138  1824","mean_motion":14.19026138,"eccentricity":0.0003108,"inclination_deg":88.9868,"raan_deg":344.2485,"arg_perigee_deg":172.5483,"mean_anomaly_deg":187.5753,"bstar":3.1424e-5,"rev_number":182,"period_min":101.47804620636,"perigee_km":826.40832996419,"apogee_km":830.88806764377,"semimajor_km":7206.785198804,"source":"CELESTRAK","updated_at":"2026-05-25T13:38:09.050209Z"}}